Weather History for Homer, AK

Change the Weather History Date:

Friday, December 28, 2012

  Actual Average Record
Temperature  
Mean Temperature 36 °F -  
Max Temperature 41 °F 31 °F 45 °F (1982)
Min Temperature 32 °F 21 °F -11 °F (1961)
Degree Days  
Heating Degree Days 28    
Moisture  
Dew Point 31 °F    
Average Humidity 77    
Maximum Humidity 89    
Minimum Humidity 65    
Precipitation  
Precipitation 0.00 in - - ()
Sea Level Pressure  
Sea Level Pressure 29.44 in    
Wind  
Wind Speed 3 mph (ENE)    
Max Wind Speed 25 mph    
Max Gust Speed 32 mph    
Visibility 10 miles    
Events Rain    
Averages and records for this station are not official NWS values.
T = Trace of Precipitation, MM = Missing Value Source: NWS Daily Summary

Daily Weather History Graph

Daily Weather History Graph

Search for Another Location

Airport:

Trip Planner

Search our weather history database for the weather conditions in past years. The results will help you decide how hot, cold, wet, or windy it might be!

Date:

Astronomy

Dec. 28, 2012 Rise Set
Actual Time 10:05 AM AKST 4:09 PM AKST
Civil Twilight 9:09 AM AKST 5:06 PM AKST
Nautical Twilight 8:14 AM AKST 6:01 PM AKST
Astronomical Twilight 7:23 AM AKST 6:52 PM AKST
Moon 5:17 PM AKST (12/28) 9:48 AM AKST (12/28)
Length of Visible Light 7h 56m
Length of Day
6h 03m
Full, 100% of the Moon is Illuminated
Dec 28
Full
Jan 4
Last Quarter
Jan 11
New
Jan 18
First Quarter
Jan 26
Full

Hourly Weather History & Observations

Time (AKST) Temp. Windchill Dew Point Humidity Pressure Visibility Wind Dir Wind Speed Gust Speed Precip Events Conditions
12:53 AM 34.0 °F - 30.0 °F 85% 29.36 in 10.0 mi Calm Calm - N/A   Overcast
1:53 AM 34.0 °F - 30.0 °F 85% 29.38 in 10.0 mi Calm Calm - N/A   Overcast
3:53 AM 37.0 °F - 32.0 °F 82% 29.41 in 10.0 mi Calm Calm - N/A   Overcast
4:53 AM 34.0 °F - 30.9 °F 89% 29.42 in 10.0 mi Calm Calm - N/A   Overcast
5:53 AM 36.0 °F - 32.0 °F 86% 29.44 in 10.0 mi Calm Calm - N/A   Overcast
6:53 AM 36.0 °F - 32.0 °F 86% 29.45 in 10.0 mi Calm Calm - N/A   Mostly Cloudy
7:53 AM 32.0 °F 28.7 °F 28.9 °F 88% 29.46 in 10.0 mi NNW 3.5 mph - N/A   Overcast
8:53 AM 33.1 °F - 30.0 °F 89% 29.48 in 10.0 mi Calm Calm - N/A   Partly Cloudy
9:53 AM 34.0 °F - 30.0 °F 85% 29.50 in 10.0 mi Calm Calm - N/A   Mostly Cloudy
10:53 AM 41.0 °F 38.0 °F 32.0 °F 70% 29.51 in 10.0 mi SE 4.6 mph - N/A   Overcast
11:53 AM 39.9 °F 36.7 °F 32.0 °F 73% 29.52 in 10.0 mi WNW 4.6 mph - N/A   Overcast
12:53 PM 41.0 °F - 30.9 °F 67% 29.52 in 10.0 mi Calm Calm - N/A   Mostly Cloudy
1:53 PM 41.0 °F - 30.9 °F 67% 29.52 in 10.0 mi Calm Calm - N/A   Overcast
2:53 PM 37.9 °F 35.5 °F 30.9 °F 76% 29.52 in 10.0 mi NNE 3.5 mph - N/A   Partly Cloudy
3:53 PM 39.0 °F - 30.9 °F 73% 29.51 in 10.0 mi Calm Calm - N/A   Overcast
4:53 PM 37.0 °F - 30.9 °F 79% 29.50 in 10.0 mi Calm Calm - N/A   Overcast
5:53 PM 36.0 °F - 30.0 °F 79% 29.47 in 10.0 mi North - - N/A   Scattered Clouds
6:53 PM 37.9 °F 34.4 °F 28.9 °F 70% 29.44 in 10.0 mi ENE 4.6 mph - N/A   Clear
7:53 PM 41.0 °F 32.5 °F 30.0 °F 65% 29.39 in 10.0 mi East 17.3 mph 28.8 mph N/A   Clear
8:53 PM 41.0 °F 31.6 °F 30.9 °F 67% 29.38 in 10.0 mi East 20.7 mph 31.1 mph N/A   Clear
9:53 PM 41.0 °F 30.7 °F 30.9 °F 67% 29.36 in 10.0 mi East 25.3 mph 32.2 mph N/A   Mostly Cloudy
10:53 PM 41.0 °F 30.9 °F 30.9 °F 67% 29.30 in 10.0 mi ENE 24.2 mph 31.1 mph N/A   Overcast
11:53 PM 41.0 °F 31.9 °F 33.1 °F 73% 29.25 in 8.0 mi East 19.6 mph 27.6 mph 0.00 in Rain Light Rain